Tracking 28531 objects as of 27-Feb-2024
HD Live streaming from Space Station
objects crossing your sky now

TITAN 3C TRANSTAGE DEB

Track TITAN 3C TRANSTAGE DEB now!


NORAD ID: 43285
Int'l Code: 1969-013F
Perigee: 36,422.6 km
Apogee: 39,265.4 km
Inclination: 1.1 °
Period: 1,542.1 minutes
Semi major axis: 44215 km
RCS: Unknown
Launch date: February 9, 1969
Source: United States (US)
Launch site: AIR FORCE EASTERN TEST RANGE (AFETR)

Note: This is SATELLITE DEBRIS
Your satellite tracking list
Your tracking list is empty




NASA's NSSDC Master Catalog

Two Line Element Set (TLE):
1 43285U 69013F   24044.77060821 -.00000169  00000-0  00000-0 0  9993
2 43285   1.1458 250.0435 0321478 338.2722  19.5789  0.93378744 20123
Source of the keplerian elements: AFSPC